When you browse on this site, cookies collect data to enhance your experience and personalize the content and advertising you see.
Visit our Privacy Policy to learn more. By continuing to use the site, you agree to this use of cookies and data.
  • In Portugal
  • List of Countries
  • For 7 days
  • Water Temperature
  • Weather Map
  • Weather Widgets
  • user-avatar
    Login

    Hourly Weather Sumgayit

    Today, 22 November, Friday

    Time Temperature Precipitation Wind Pressure Humidity
    00:00 +3°C° 0.1 mm 5 mps 751 mmHg 76%
    01:00 +2°C° 0.2 mm 5 mps 750 mmHg 77%
    02:00 +2°C° 0.2 mm 5 mps 750 mmHg 77%
    03:00 +2°C° 0 mm 5 mps 750 mmHg 78%
    04:00 +2°C° 0.2 mm 6 mps 750 mmHg 77%
    05:00 +2°C° 0.2 mm 6 mps 751 mmHg 76%
    06:00 +2°C° 0.2 mm 6 mps 751 mmHg 74%
    07:00 +2°C° 0.2 mm 6 mps 751 mmHg 77%
    08:00 0°C° 0.2 mm 7 mps 752 mmHg 80%
    09:00 0°C° 0.2 mm 7 mps 752 mmHg 82%
    10:00 0°C° 0.3 mm 7 mps 752 mmHg 81%
    11:00 0°C° 0.3 mm 7 mps 752 mmHg 79%
    12:00 +1°C° 0.3 mm 6 mps 752 mmHg 77%
    13:00 +1°C° 0.2 mm 6 mps 752 mmHg 77%
    14:00 +1°C° 0.2 mm 6 mps 752 mmHg 77%
    15:00 +1°C° 0.2 mm 6 mps 752 mmHg 77%
    16:00 +1°C° 0.1 mm 6 mps 752 mmHg 76%
    17:00 -1°C° 0.1 mm 6 mps 752 mmHg 76%
    18:00 -1°C° 0.1 mm 6 mps 753 mmHg 76%
    19:00 -1°C° 0 mm 6 mps 753 mmHg 76%
    20:00 0°C° 0 mm 5 mps 753 mmHg 76%
    21:00 0°C° 0 mm 5 mps 753 mmHg 76%
    22:00 0°C° 0.1 mm 5 mps 753 mmHg 78%
    23:00 -1°C° 0.1 mm 5 mps 753 mmHg 81%

    Tomorrow, 23 November, Saturday

    Time Temperature Precipitation Wind Pressure Humidity
    00:00 -1°C° 0.1 mm 5 mps 753 mmHg 83%
    01:00 -1°C° 0.1 mm 4 mps 753 mmHg 84%
    02:00 -1°C° 0.1 mm 4 mps 753 mmHg 85%
    03:00 0°C° 0.1 mm 3 mps 753 mmHg 86%
    04:00 0°C° 0 mm 3 mps 753 mmHg 86%
    05:00 0°C° 0 mm 3 mps 753 mmHg 87%
    06:00 0°C° 0 mm 3 mps 753 mmHg 88%
    07:00 0°C° 0.1 mm 3 mps 753 mmHg 87%
    08:00 0°C° 0.1 mm 3 mps 754 mmHg 86%
    09:00 +1°C° 0.1 mm 2 mps 754 mmHg 85%
    10:00 +2°C° 0 mm 2 mps 753 mmHg 85%
    11:00 +2°C° 0 mm 2 mps 753 mmHg 84%
    12:00 +2°C° 0 mm 2 mps 753 mmHg 84%
    13:00 +2°C° 0 mm 2 mps 753 mmHg 81%
    14:00 +3°C° 0 mm 2 mps 752 mmHg 78%
    15:00 +4°C° 0 mm 1 mps 752 mmHg 74%
    16:00 +4°C° 0 mm 1 mps 752 mmHg 74%
    17:00 +4°C° 0 mm 1 mps 752 mmHg 74%
    18:00 +4°C° 0 mm 1 mps 752 mmHg 73%
    19:00 +4°C° 0 mm 1 mps 752 mmHg 75%
    20:00 +4°C° 0 mm 1 mps 752 mmHg 77%
    21:00 +3°C° 0 mm 1 mps 752 mmHg 79%
    22:00 +3°C° 0 mm 1 mps 752 mmHg 81%
    23:00 +3°C° 0 mm 1 mps 752 mmHg 82%

    Day after tomorrow, 24 November, Sunday

    Time Temperature Precipitation Wind Pressure Humidity
    00:00 +3°C° 0 mm 1 mps 752 mmHg 84%
    01:00 +2°C° 0 mm 2 mps 752 mmHg 83%
    02:00 +2°C° 0 mm 2 mps 751 mmHg 82%
    03:00 +2°C° 0 mm 2 mps 751 mmHg 81%
    04:00 +2°C° 0 mm 2 mps 751 mmHg 80%
    05:00 +2°C° 0 mm 2 mps 751 mmHg 79%
    06:00 +2°C° 0 mm 2 mps 751 mmHg 77%
    07:00 +3°C° 0 mm 2 mps 751 mmHg 75%
    08:00 +4°C° 0 mm 1 mps 751 mmHg 72%
    09:00 +5°C° 0 mm 1 mps 751 mmHg 70%
    10:00 +6°C° 0 mm 1 mps 751 mmHg 69%
    11:00 +5°C° 0 mm 2 mps 751 mmHg 68%
    12:00 +6°C° 0 mm 2 mps 750 mmHg 67%
    13:00 +6°C° 0.1 mm 2 mps 750 mmHg 70%
    14:00 +6°C° 0.1 mm 2 mps 750 mmHg 72%
    15:00 +6°C° 0.1 mm 2 mps 750 mmHg 75%
    16:00 +6°C° 0.5 mm 2 mps 750 mmHg 77%
    17:00 +5°C° 0.5 mm 3 mps 750 mmHg 80%
    18:00 +5°C° 0.5 mm 3 mps 750 mmHg 83%
    19:00 +7°C° 0.6 mm 3 mps 750 mmHg 82%
    20:00 +7°C° 0.6 mm 3 mps 750 mmHg 82%
    21:00 +7°C° 0.6 mm 3 mps 749 mmHg 81%
    22:00 +7°C° 0.6 mm 3 mps 749 mmHg 81%
    23:00 +7°C° 0.6 mm 2 mps 749 mmHg 80%

    25 November, Monday

    Time Temperature Precipitation Wind Pressure Humidity
    00:00 +7°C° 0.6 mm 2 mps 749 mmHg 80%
    01:00 +6°C° 0.1 mm 2 mps 749 mmHg 78%
    02:00 +6°C° 0.1 mm 2 mps 748 mmHg 75%
    03:00 +6°C° 0.1 mm 2 mps 748 mmHg 73%
    04:00 +6°C° 0 mm 2 mps 748 mmHg 73%
    05:00 +6°C° 0 mm 2 mps 748 mmHg 72%
    06:00 +6°C° 0 mm 2 mps 748 mmHg 72%
    07:00 +6°C° 0 mm 2 mps 748 mmHg 71%
    08:00 +6°C° 0 mm 2 mps 748 mmHg 70%
    09:00 +7°C° 0 mm 2 mps 748 mmHg 68%
    10:00 +7°C° 0 mm 2 mps 748 mmHg 69%
    11:00 +8°C° 0 mm 2 mps 748 mmHg 69%
    12:00 +8°C° 0 mm 2 mps 747 mmHg 70%
    13:00 +8°C° 0.1 mm 2 mps 747 mmHg 71%
    14:00 +8°C° 0.1 mm 2 mps 747 mmHg 72%
    15:00 +8°C° 0.1 mm 2 mps 746 mmHg 73%
    16:00 +8°C° 0.1 mm 2 mps 746 mmHg 74%
    17:00 +9°C° 0.1 mm 1 mps 746 mmHg 75%
    18:00 +8°C° 0.1 mm 1 mps 746 mmHg 76%
    19:00 +8°C° 0.1 mm 1 mps 747 mmHg 77%
    20:00 +8°C° 0.1 mm 1 mps 747 mmHg 77%
    21:00 +8°C° 0.1 mm 1 mps 747 mmHg 78%
    22:00 +8°C° 0.1 mm 1 mps 746 mmHg 78%
    23:00 +8°C° 0.1 mm 1 mps 746 mmHg 79%

    26 November, Tuesday

    Time Temperature Precipitation Wind Pressure Humidity
    00:00 +8°C° 0.1 mm 1 mps 746 mmHg 79%
    01:00 +8°C° 0.1 mm 1 mps 746 mmHg 79%
    02:00 +8°C° 0.1 mm 1 mps 745 mmHg 79%
    03:00 +8°C° 0.1 mm 1 mps 745 mmHg 79%
    04:00 +8°C° 0 mm 1 mps 745 mmHg 78%
    05:00 +8°C° 0 mm 1 mps 745 mmHg 78%
    06:00 +8°C° 0 mm 1 mps 745 mmHg 78%
    07:00 +8°C° 0 mm 1 mps 745 mmHg 76%
    08:00 +8°C° 0 mm 0 mps 746 mmHg 74%
    09:00 +8°C° 0 mm 0 mps 746 mmHg 73%
    10:00 +8°C° 0 mm 0 mps 746 mmHg 72%
    11:00 +9°C° 0 mm 1 mps 745 mmHg 72%
    12:00 +10°C° 0 mm 1 mps 745 mmHg 72%
    13:00 +10°C° 0 mm 1 mps 745 mmHg 72%
    14:00 +10°C° 0 mm 1 mps 744 mmHg 73%
    15:00 +9°C° 0 mm 2 mps 744 mmHg 73%
    16:00 +9°C° 0 mm 2 mps 744 mmHg 75%
    17:00 +10°C° 0 mm 1 mps 744 mmHg 77%
    18:00 +10°C° 0 mm 1 mps 744 mmHg 78%
    19:00 +10°C° 0 mm 1 mps 744 mmHg 79%
    20:00 +9°C° 0 mm 2 mps 744 mmHg 79%
    21:00 +9°C° 0 mm 2 mps 744 mmHg 79%
    22:00 +9°C° 0.1 mm 2 mps 744 mmHg 80%
    23:00 +9°C° 0.1 mm 2 mps 744 mmHg 81%

    27 November, Wednesday

    Time Temperature Precipitation Wind Pressure Humidity
    00:00 +9°C° 0.1 mm 2 mps 743 mmHg 82%
    01:00 +9°C° 0 mm 2 mps 743 mmHg 82%
    02:00 +9°C° 0 mm 2 mps 743 mmHg 82%
    03:00 +9°C° 0 mm 2 mps 743 mmHg 82%
    04:00 +9°C° 0 mm 3 mps 743 mmHg 82%
    05:00 +9°C° 0 mm 3 mps 743 mmHg 82%
    06:00 +9°C° 0 mm 3 mps 742 mmHg 83%
    07:00 +9°C° 0.1 mm 3 mps 743 mmHg 80%
    08:00 +9°C° 0.1 mm 3 mps 743 mmHg 77%
    09:00 +8°C° 0.1 mm 4 mps 743 mmHg 74%
    10:00 +8°C° 0 mm 4 mps 742 mmHg 72%
    11:00 +10°C° 0 mm 4 mps 742 mmHg 69%
    12:00 +9°C° 0 mm 5 mps 741 mmHg 66%
    13:00 +9°C° 0 mm 5 mps 741 mmHg 65%
    14:00 +9°C° 0 mm 5 mps 741 mmHg 64%
    15:00 +9°C° 0 mm 5 mps 741 mmHg 62%
    16:00 +10°C° 0 mm 4 mps 741 mmHg 63%
    17:00 +9°C° 0 mm 3 mps 741 mmHg 64%
    18:00 +9°C° 0 mm 3 mps 741 mmHg 65%
    19:00 +9°C° 0 mm 2 mps 741 mmHg 65%
    20:00 +9°C° 0 mm 2 mps 742 mmHg 65%
    21:00 +9°C° 0 mm 1 mps 742 mmHg 66%
    22:00 +9°C° 0 mm 1 mps 742 mmHg 65%
    23:00 +9°C° 0 mm 1 mps 742 mmHg 65%
    Show more